Miscellaneous Local Product
Issued by NWS Hastings, NE

Home | Current Version | Previous Version | Graphics & Text | Print | Product List | Glossary On
Versions: 1 2 3 4 5 6 7 8 9 10 11 12 13 14 15 16 17 18 19 20 21 22 23 24 25 26 27 28 29 30 31 32 33 34 35 36 37 38 39 40 41 42 43 44 45 46 47 48 49 50
000
AXUS43 KGID 250002
MISGRI

GID CWA HOURLY WEATHER ROUNDUP
NATIONAL WEATHER SERVICE HASTINGS NE
700 PM CDT MON APR 24 2017

NOTE: "FAIR" INDICATES FEW OR NO CLOUDS BELOW 12,000 FEET WITH NO
SIGNIFICANT WEATHER AND/OR OBSTRUCTIONS TO VISIBILITY.

...SOUTH CENTRAL NEBRASKA...

CITY           SKY/WX    TMP DP  RH WIND       PRES   REMARKS
GRAND ISLAND   MOSUNNY   69  41  36 NW10      29.52R
HASTINGS       MOSUNNY   71  40  32 NW13      29.52R
KEARNEY        CLOUDY    72  43  35 N16G22    29.53S
ORD            MOSUNNY   64  41  42 N16       29.54R
YORK           CLOUDY    73  41  31 W10       29.49R
AURORA         CLOUDY    71  39  31 NW15      29.51R
LEXINGTON      SUNNY     67  42  39 NE13      29.55R
HOLDREGE       SUNNY     71  40  32 N12G17    29.53R
HEBRON         CLOUDY    73  47  39 S14G20    29.48R

...NEBRASKA PANHANDLE...

CITY           SKY/WX    TMP DP  RH WIND       PRES   REMARKS
CHADRON        CLOUDY    62  40  44 NE12      29.55S
ALLIANCE       MOSUNNY   63  35  35 N13       29.55S
SCOTTSBLUFF    LGT RAIN  62  33  33 W13       29.58R
SIDNEY         PTSUNNY   61  35  37 W7        29.59R

...WESTERN AND NORTH CENTRAL NEBRASKA...

CITY           SKY/WX    TMP DP  RH WIND       PRES   REMARKS
VALENTINE      SUNNY     58  40  51 N10       29.60R
AINSWORTH      MOSUNNY   55  42  63 N15       29.61R
ONEILL         SUNNY     58  40  51 NW13      29.57R
BROKEN BOW     SUNNY     64  42  44 N13       29.55S
IMPERIAL       CLOUDY    69  38  32 N6        29.55R
NORTH PLATTE   SUNNY     70  35  27 NE14      29.54R
MCCOOK         MOSUNNY   75  39  27 CALM      29.52R

...EASTERN NEBRASKA...

CITY           SKY/WX    TMP DP  RH WIND       PRES   REMARKS
NORFOLK        SUNNY     69  40  34 W8        29.49R
SO SIOUX CITY  CLOUDY    72  43  35 SW12      29.48F
TEKAMAH        CLOUDY    71  44  37 S16       29.49F
COLUMBUS       SUNNY     72  43  35 NW15      29.49S
ALBION         SUNNY     65  46  49 NW9       29.52R
OMAHA EPPLEY   CLOUDY    74  42  31 S17G26    29.51S
OFFUTT AFB     CLOUDY    72  42  33 SE10      29.51S
MILLARD        CLOUDY    75  47  37 S7        29.51S
LINCOLN        CLOUDY    72  47  40 S13       29.50S
NEBRASKA CITY  CLOUDY    71  34  25 S18G24    29.53S
BEATRICE       SUNNY     73  49  43 S14G22    29.51R
FALLS CITY     SUNNY     71  42  35 S20G30    29.55F

...NORTHERN KANSAS...

CITY           SKY/WX    TMP DP  RH WIND       PRES   REMARKS
GOODLAND       MOSUNNY   72  39  30 E10       29.53F
HILL CITY      SUNNY     78  44  29 NE9       29.50S
NORTON         CLEAR     73  37  27 NE9       29.50F
PHILLIPSBURG   SUNNY     73  45  35 N5        29.51S
SMITH CENTER   MOSUNNY   75  41  29 NW7       29.51R
HAYS           SUNNY     77  45  32 SE6       29.49F
RUSSELL        SUNNY     78  44  29 CALM      29.49S
CONCORDIA      PTSUNNY   73  51  46 S22G35    29.47S
SALINA         MOSUNNY   75  54  47 S15G24    29.50S
TOPEKA         SUNNY     72  46  39 S14G23    29.58S



USA.gov is the U.S. government's official web portal to all federal, state and local government web resources and services.